Flag for Germany Weather past 2 weeks in Sinsheim, Baden-Württemberg, Germany

Now
39 °F

Partly sunny.


Feels Like: 35 °F
Forecast: 34 / 40 °F
Wind: 6 mph from Southwest

Location: Baden Wurttemberg - Neuostheim

Current Time: Jan 27, 2015 at 12:02:09 PM

Latest Report: Jan 27, 2015 at 11:20 AM


Visibility: N/A

Pressure: 30.21 "Hg

Humidity: 81%

Dew point: 34 °F

Location of SinsheimLocation

Historic Weather in Sinsheim — Graph

°F

Sinsheim temperature yesterday

Maximum temperature yesterday: 36 °F (at 8:50 AM)
Minimum temperature yesterday: 34 °F (at 5:20 AM)
Average temperature yesterday: 35 °F

Past Weeks' High & Low Weather Summary

 TemperatureHumidityPressure
High59 °F (Jan 13, 2:50 PM)100% (Jan 16, 10:20 AM)30.45 "Hg (Jan 16, 10:20 AM)
Low28 °F (Jan 19, 5:20 AM)31% (Jan 13, 2:50 PM)29.65 "Hg (Jan 15, 6:50 PM)
Average39 °F81%30.00 "Hg
* Reported Jan 12 10:20 AM — Jan 27 10:20 AM, Sinsheim, Weather by CustomWeather, © 2014

Note: Actual official high and low records may vary slightly from our data, if they occured in-between our weather recording intervals... More about our weather records

Advertising

Sinsheim weather history for previous 24 hours

 ConditionsComfort  
Time TempWeatherWind HumidityBarometerVisibility
10:20 AM
Jan 27
36 °FPartly sunny.5 mph93%30.21 "HgN/A
9:50 AM37 °FPartly sunny.5 mph87%30.21 "HgN/A
9:20 AM36 °FPartly sunny.3 mph87%30.21 "HgN/A
8:50 AM36 °FScattered clouds.3 mph87%30.21 "HgN/A
8:20 AM36 °FPassing clouds.5 mph87%30.18 "HgN/A
7:50 AM36 °FPassing clouds.3 mph87%30.18 "HgN/A
7:20 AM36 °FPassing clouds.5 mph87%30.18 "HgN/A
6:50 AM37 °FPassing clouds.6 mph87%30.18 "HgN/A
6:20 AM36 °FPassing clouds.5 mph93%30.18 "HgN/A
5:50 AM37 °FPassing clouds.6 mph81%30.18 "HgN/A
8:50 PM
Jan 26
36 °FLight rain. Fog.7 mph93%30.09 "Hg2 mi
8:20 PM36 °FLight rain. Fog.7 mph93%30.09 "Hg2 mi
7:50 PM36 °FLight rain. Mostly cloudy.7 mph93%30.09 "Hg4 mi
7:20 PM34 °FLight rain. Mostly cloudy.6 mph100%30.12 "Hg3 mi
5:50 PM34 °FLight rain. Passing clouds.8 mph100%30.12 "Hg4 mi
5:20 PM34 °FLight rain. Fog.8 mph100%30.12 "Hg2 mi
4:50 PM34 °FLight rain. Fog.8 mph100%30.12 "Hg2 mi
4:20 PM34 °FLight rain. Fog.9 mph100%30.15 "Hg2 mi
3:50 PM34 °FLight rain. Low clouds.9 mph100%30.15 "HgN/A
3:20 PM36 °FLight rain. Mostly cloudy.9 mph93%30.15 "Hg4 mi
2:50 PM36 °FLight rain. Fog.8 mph93%30.18 "Hg2 mi
2:20 PM36 °FLight rain. Fog.10 mph93%30.18 "Hg2 mi
1:50 PM36 °FLight rain. Fog.9 mph93%30.21 "Hg2 mi
1:20 PM36 °FLight rain. Fog.10 mph93%30.21 "Hg2 mi
12:50 PM36 °FLight rain. Low clouds.12 mph93%30.24 "Hg5 mi
12:20 PM36 °FLow clouds.12 mph93%30.24 "Hg5 mi
Weather by CustomWeather, © 2014

See weather overviewHow to use our weather pages